Theta_e
300 300 299 297 296 294 293 293 294 294 295 296 296 297 297 297 295 294 295 295 295 294 294 294 292 291 291 291 291 291 291 291 291 291 291 291 291 291 291 291 291 290 289 289 288 289 287 286 285 284 284 284 284 284 285 284 283 283 284 284 282 280 281 280 281 280 280 280 279 280 281 282 286 283 281 281 282 282 282 282 283 283 282 283 282
298 298 298 294 292 291 291 292 292 293 294 294 295 297 297 296 295 295 295 295 295 295 295 294 294 293 292 292 292 292 291 291 290 291 291 291 291 291 291 291 290 290 289 289 288 288 286 286 285 285 284 284 284 283 283 285 283 283 284 281 280 280 280 280 281 280 280 278 280 280 279 279 283 281 281 281 281 282 281 282 282 282 282 282 283
298 297 296 293 292 291 291 291 292 294 295 295 295 295 295 295 295 295 294 294 295 295 295 294 294 294 293 292 293 291 292 291 291 291 291 290 290 290 290 290 290 289 289 289 288 288 287 286 286 285 284 285 284 283 284 283 283 283 283 282 280 280 281 281 280 278 278 279 279 279 278 279 282 279 279 280 281 281 281 282 282 282 282 282 282
297 297 297 293 291 290 289 289 291 292 292 291 292 294 295 295 295 294 294 294 294 295 295 294 294 292 291 289 290 289 289 290 289 289 289 289 288 289 289 290 289 289 289 289 289 288 287 286 286 285 284 285 284 283 283 283 282 283 282 282 282 280 279 280 282 280 278 280 280 278 276 278 277 278 277 279 279 279 280 281 282 281 280 281 281
296 297 297 296 291 289 290 290 288 290 292 292 293 294 295 295 295 294 294 294 294 294 294 293 292 290 288 288 288 287 288 288 287 286 288 289 289 288 289 289 289 289 289 289 289 288 287 287 286 285 284 284 284 284 284 284 283 284 283 282 281 282 279 279 281 280 279 281 280 276 276 279 277 277 276 276 277 280 280 279 283 279 280 281 280
295 296 296 295 292 290 287 286 287 289 291 292 293 294 294 294 293 293 293 293 293 293 294 293 292 291 289 288 287 288 287 287 288 288 287 288 289 289 289 289 289 289 289 288 288 288 287 286 286 285 284 284 284 284 284 283 282 283 282 282 281 280 281 280 279 281 280 281 278 277 279 278 276 275 277 278 278 279 278 279 279 278 279 279 280
291 293 293 293 291 290 288 287 288 289 291 291 290 291 291 292 292 293 293 293 293 293 293 293 292 291 291 291 291 290 290 289 291 290 289 290 290 289 289 288 289 289 288 288 288 288 287 286 286 285 285 284 284 283 283 283 283 283 283 281 281 282 281 279 280 279 279 279 279 278 280 279 278 278 276 276 277 276 277 278 279 277 278 278 279
293 293 292 291 290 290 293 292 289 290 290 288 289 289 290 291 291 292 292 292 293 293 293 293 292 291 291 291 291 291 291 290 290 290 290 290 289 289 288 288 288 289 288 287 287 287 287 286 285 285 285 284 284 283 283 283 283 283 282 282 280 282 282 282 279 279 280 279 279 279 279 278 277 277 277 276 275 275 276 276 277 276 277 277 279
290 291 292 291 291 290 290 290 289 287 287 287 288 289 289 289 290 290 291 291 292 292 292 292 292 292 291 291 291 291 291 290 289 290 289 289 288 288 287 287 287 288 288 287 287 287 287 286 285 285 284 284 284 283 283 282 282 282 282 281 280 281 280 280 281 279 279 279 278 277 277 277 277 277 277 277 276 275 275 275 276 276 277 278 278
291 289 290 290 290 289 286 286 286 285 284 286 286 286 286 286 288 288 289 290 291 291 292 292 292 291 291 291 290 290 289 287 287 287 287 287 288 287 287 287 287 287 287 286 286 286 286 285 285 285 284 284 284 283 282 281 282 282 282 282 281 281 279 280 281 280 280 280 280 279 277 277 276 276 276 276 276 275 276 275 275 276 275 276 277
290 290 289 289 287 284 282 284 283 283 283 284 285 285 285 285 285 287 287 289 289 290 290 291 291 291 291 291 290 290 289 287 286 286 286 286 287 287 287 287 286 286 286 285 286 286 285 285 285 284 284 284 284 283 282 282 282 282 282 281 281 281 280 280 281 279 279 279 279 279 279 279 278 276 276 276 276 275 274 274 275 276 275 275 276
287 287 290 289 289 287 284 285 283 282 282 283 283 284 284 284 286 286 286 287 288 289 289 290 290 290 290 290 290 291 289 288 287 287 286 286 287 287 287 286 286 286 286 285 285 285 285 285 284 284 284 283 283 283 282 282 282 281 281 281 281 280 280 280 279 279 278 279 279 279 279 279 278 277 278 278 277 276 277 275 275 275 276 276 277
286 288 289 291 292 291 288 286 284 283 281 281 282 283 283 283 284 286 286 286 287 288 288 289 289 290 290 289 290 290 290 289 288 288 287 287 287 287 286 286 286 285 285 285 285 284 285 284 283 283 283 283 283 283 282 282 281 281 281 281 281 280 280 280 280 279 279 279 279 279 278 278 277 277 278 278 277 277 277 275 275 275 274 274 275
286 285 286 287 289 289 288 286 285 284 282 281 282 283 283 284 283 285 286 285 286 286 288 288 289 289 289 289 289 290 289 289 288 288 288 287 287 287 287 287 286 286 286 286 286 285 285 285 284 284 284 283 283 283 282 281 281 281 281 280 280 281 280 280 280 279 279 279 279 278 278 278 277 277 278 278 277 277 276 276 275 274 274 274 275
284 284 285 286 288 286 287 287 286 284 282 281 281 282 282 282 283 284 285 285 285 286 287 287 288 288 288 288 288 288 289 289 289 289 288 287 287 287 287 287 287 287 287 287 286 285 284 284 284 284 283 283 283 282 282 281 281 281 280 280 280 280 280 280 279 279 279 278 278 278 278 278 278 277 278 278 278 278 277 276 276 274 273 273 273
284 285 286 286 285 287 286 287 287 284 282 281 281 282 282 284 284 284 285 285 285 286 286 287 287 287 287 287 288 288 288 288 288 288 288 287 287 287 287 287 287 287 287 286 286 285 284 284 284 283 283 282 282 282 282 281 281 280 280 280 279 280 279 279 279 279 279 279 278 278 278 278 278 278 278 278 278 277 277 277 276 275 275 272 273
285 286 286 287 287 287 286 286 287 285 282 283 282 283 284 284 284 284 284 284 285 285 286 286 286 286 287 287 287 287 287 287 288 287 287 286 286 286 286 286 286 286 286 286 285 285 285 284 283 283 283 282 282 282 281 281 281 280 280 279 279 279 279 279 278 278 278 278 278 278 278 278 277 277 277 277 277 277 277 277 277 276 275 274 270
284 283 284 285 285 286 287 287 285 285 285 284 282 282 283 284 284 285 284 285 285 285 285 285 286 286 286 286 287 287 287 287 287 286 286 285 285 285 285 285 286 286 286 286 285 284 284 284 283 283 282 282 281 281 281 281 280 280 280 279 279 278 278 278 278 278 277 277 278 277 277 277 277 277 277 277 277 277 277 277 277 276 276 275 274
288 288 287 289 290 292 289 288 287 287 285 284 283 282 282 282 283 284 284 285 284 285 284 285 286 287 288 287 287 287 287 287 286 284 283 284 284 285 285 286 285 285 285 285 284 284 284 284 283 283 282 281 281 281 281 280 280 280 279 279 278 278 278 278 277 278 277 277 277 277 277 277 277 277 277 277 277 277 276 276 276 276 276 275 275
292 294 294 292 291 290 288 288 287 287 286 285 283 282 281 281 282 283 284 283 284 284 284 285 286 286 287 285 286 287 287 286 286 285 284 284 285 284 284 283 285 285 284 284 284 284 284 283 283 283 282 281 281 281 280 280 280 280 279 279 278 278 278 277 277 277 277 277 277 276 276 276 276 276 276 276 276 276 276 276 276 276 275 275 275
292 292 291 290 289 288 288 288 287 287 286 285 284 283 282 282 281 281 282 283 283 284 284 284 284 285 285 285 286 286 286 285 284 284 285 284 284 284 284 285 283 284 284 284 284 284 284 284 283 283 282 281 281 280 280 280 280 279 279 279 278 278 278 277 277 276 277 277 277 276 276 276 276 276 276 276 276 276 276 276 275 275 275 275 275
289 288 288 288 287 287 287 288 288 288 287 287 286 285 283 282 281 282 282 281 282 283 283 284 284 285 285 285 285 284 284 284 284 284 284 284 284 284 284 283 283 284 284 284 284 284 284 283 283 282 282 281 281 281 280 280 279 279 278 278 278 277 277 277 277 276 276 276 276 276 276 275 276 275 275 275 275 275 275 274 274 275 274 274 275
286 285 286 286 285 285 286 286 286 287 287 287 287 287 285 284 283 282 282 283 282 283 283 284 284 284 285 285 284 284 284 284 284 284 284 285 284 284 284 284 284 284 284 284 284 284 284 283 283 282 282 281 281 281 280 280 280 279 278 278 278 278 277 277 276 276 276 276 276 275 275 275 275 274 275 275 275 274 274 274 274 274 273 273 274
284 284 284 284 284 285 286 285 286 286 287 287 288 288 288 287 286 283 282 283 282 283 283 283 283 284 284 284 284 284 284 284 284 285 285 285 285 285 284 284 284 284 283 283 284 284 283 283 282 282 282 281 281 281 280 280 280 279 279 278 278 277 278 277 277 277 276 276 275 275 275 275 275 274 274 274 274 274 273 273 273 273 273 272 272
283 283 283 284 284 284 285 285 285 286 286 287 287 288 288 288 288 287 286 284 283 282 282 283 283 283 284 284 284 284 284 284 284 285 285 285 285 285 284 284 283 283 283 283 283 283 283 282 282 282 281 281 281 281 280 279 279 279 279 278 278 277 278 278 277 277 278 276 275 275 275 275 274 274 273 273 273 272 273 272 272 272 272 272 272
282 282 283 283 283 284 285 285 286 286 286 286 286 287 287 287 288 288 288 288 286 283 282 282 283 283 283 283 284 284 284 284 285 285 285 285 286 285 284 283 283 283 282 282 282 282 283 282 282 282 282 281 281 280 280 279 279 279 279 278 278 277 277 277 277 277 277 276 275 275 275 275 274 273 273 273 272 272 272 271 271 271 271 271 270
282 282 282 283 283 283 284 285 285 285 285 285 285 286 286 286 286 287 287 288 288 287 286 282 282 282 282 283 283 283 284 284 285 285 286 285 285 284 284 283 283 283 282 282 282 282 282 283 282 282 282 281 281 280 280 279 279 278 278 278 277 277 277 277 277 276 276 276 276 275 275 275 274 274 273 272 272 272 271 271 271 271 271 270 270
282 282 282 282 282 283 283 283 284 285 285 285 285 285 285 285 285 285 286 286 287 287 286 286 286 284 283 283 283 284 284 284 285 285 285 285 284 284 284 284 283 282 282 282 282 282 282 282 282 282 282 281 280 280 279 279 279 278 278 277 277 277 276 276 276 275 275 275 275 275 275 274 274 274 273 272 272 271 271 271 271 271 271 270 270
281 281 281 281 281 282 282 282 283 284 284 284 285 285 285 285 284 285 285 285 286 286 286 285 284 284 284 285 284 284 285 285 285 284 284 284 284 284 284 284 283 282 283 282 282 282 281 281 281 281 281 281 280 280 279 279 278 278 278 277 277 277 276 275 275 274 275 275 274 274 274 274 274 276 276 275 274 274 271 270 270 271 270 270 269
281 281 281 281 281 282 282 282 282 283 283 283 284 284 284 284 284 284 284 285 285 285 285 285 284 284 284 284 283 283 284 284 284 284 284 284 284 283 283 283 282 282 282 282 281 281 281 281 281 281 281 281 280 280 281 283 282 278 277 277 277 276 276 275 274 274 273 273 273 273 273 276 277 277 277 277 277 276 275 272 271 271 270 269 268
282 282 281 280 281 281 282 282 282 282 283 283 283 284 284 284 284 284 284 285 285 284 284 284 284 284 284 283 283 282 282 283 283 284 284 284 284 283 283 282 282 281 281 280 280 280 280 281 281 280 280 280 280 280 283 284 284 284 279 277 276 276 275 275 274 273 273 273 272 273 272 275 276 277 276 278 278 278 277 276 276 275 274 271 269
281 281 281 281 281 281 281 281 282 282 283 283 283 283 283 283 284 284 284 285 285 284 284 284 284 284 284 283 282 282 281 281 282 282 283 284 283 283 282 282 281 280 280 280 280 280 280 280 280 280 280 280 280 282 284 285 285 285 282 278 277 276 275 275 274 274 273 273 272 271 272 273 274 274 275 276 277 278 278 277 277 277 277 277 276
281 281 281 281 281 281 282 282 282 283 283 284 284 283 283 283 283 284 284 284 284 284 283 284 284 284 284 284 282 281 281 280 281 281 281 281 281 281 281 281 280 281 280 280 280 280 280 280 280 280 279 280 279 283 284 285 285 285 284 280 277 276 275 275 274 274 273 273 272 271 271 272 273 276 275 275 275 276 278 278 278 278 278 279 279
282 282 282 282 282 282 283 283 283 283 284 284 284 284 284 284 284 284 284 284 284 284 283 283 284 284 284 283 283 282 280 280 279 279 279 279 279 280 281 281 280 280 279 280 280 279 280 279 279 279 279 279 279 282 284 285 285 286 285 282 277 276 275 275 274 274 273 273 272 271 271 271 273 274 275 275 275 276 276 276 276 276 277 278 280
282 282 282 282 282 282 282 283 283 284 284 284 283 283 283 283 284 284 284 284 284 284 283 283 283 283 283 283 282 281 281 280 279 278 277 277 278 279 279 279 279 280 280 279 279 279 279 279 279 279 279 279 278 282 284 285 285 286 286 283 276 275 275 274 274 274 273 272 272 272 272 272 273 274 274 275 275 275 276 276 276 276 277 276 276
282 282 282 281 281 281 282 282 283 283 283 282 282 283 282 282 284 283 284 284 284 283 283 284 283 283 283 283 282 281 280 280 279 278 276 277 277 277 278 278 278 278 279 279 279 279 279 279 279 279 278 278 278 282 284 285 286 286 286 280 275 274 274 273 273 273 273 273 273 273 273 273 273 274 277 278 277 276 275 273 272 271 272 274 274
283 283 282 282 281 282 282 282 282 282 282 282 282 282 281 282 282 282 282 282 282 282 283 283 283 283 283 283 282 281 280 280 279 278 277 277 277 277 277 277 276 277 278 278 279 279 279 279 278 278 277 277 277 281 283 285 285 286 285 278 275 274 273 273 272 273 273 273 273 274 274 273 274 274 278 280 279 278 273 272 271 271 271 272 272
283 282 282 281 281 281 282 282 281 281 281 281 281 280 280 280 281 281 281 281 281 281 282 282 283 283 283 283 282 282 281 281 279 278 278 278 277 277 278 277 277 277 278 278 278 278 278 277 277 277 277 277 276 279 283 284 285 286 284 277 274 273 272 272 272 272 273 273 274 276 275 274 274 274 279 281 280 277 272 271 271 270 270 270 272
282 281 280 280 280 281 281 281 280 279 280 280 279 279 279 279 279 279 279 279 280 280 281 282 282 283 283 283 282 282 282 281 280 280 279 278 278 279 279 277 277 278 278 278 276 277 276 276 276 277 278 277 276 277 282 284 285 286 283 275 273 272 271 271 272 272 273 274 274 276 277 276 275 276 280 281 281 277 272 272 271 270 270 270 272
280 280 280 280 280 279 279 279 279 279 279 278 278 278 278 277 277 278 277 278 279 279 281 281 282 282 283 283 283 282 282 281 281 281 280 280 279 277 277 277 277 276 276 276 275 275 275 275 275 275 275 276 275 275 279 284 285 285 284 274 273 272 271 271 272 272 272 273 274 275 277 278 278 279 280 281 281 279 273 273 272 271 271 271 273
277 278 281 278 278 278 277 277 277 277 277 276 276 276 275 275 276 276 276 277 278 279 280 280 280 280 282 283 283 282 281 281 281 280 279 278 278 278 277 276 275 275 275 274 274 274 274 273 273 274 274 275 274 274 277 283 285 285 284 277 273 272 272 272 272 272 272 272 273 274 275 278 279 279 280 281 281 281 277 274 274 273 273 273 275
276 277 277 275 275 275 276 276 275 275 275 274 274 273 274 274 275 275 276 277 278 278 277 277 277 279 282 283 283 282 282 281 280 278 278 278 277 276 276 275 275 274 273 273 272 272 272 272 271 271 272 272 274 276 274 281 284 285 285 280 274 273 274 272 272 272 272 272 273 274 274 277 280 280 280 281 282 282 280 275 275 277 277 277 275
275 275 274 274 273 273 273 273 274 273 273 274 273 272 272 273 273 274 276 276 276 275 275 275 277 280 281 280 280 280 281 280 279 279 278 277 277 275 274 274 273 273 272 272 271 271 270 270 270 269 270 271 272 274 277 277 282 284 286 282 279 276 278 274 273 272 272 272 273 274 274 278 280 280 280 281 281 282 280 276 278 279 278 279 274
274 273 272 271 272 272 272 272 272 271 271 271 271 271 271 271 272 274 274 274 273 273 274 275 276 277 277 277 277 277 278 279 279 278 278 277 276 275 274 273 273 273 272 272 271 271 270 270 270 269 270 270 272 272 276 278 279 284 285 285 281 279 279 275 274 273 273 273 272 273 275 279 280 280 280 281 281 281 279 279 279 279 279 275 267
273 273 271 270 271 270 270 270 270 270 270 269 269 269 270 270 271 272 271 271 271 272 273 274 274 273 273 273 274 274 275 276 277 278 277 277 276 275 273 273 273 272 272 272 272 271 270 270 270 270 270 270 271 272 273 276 279 281 284 285 282 281 280 279 274 273 273 273 274 276 277 279 280 280 280 281 280 280 280 280 279 279 274 266 265
271 270 270 269 269 267 268 268 268 269 269 269 269 268 268 269 270 269 269 270 270 270 270 270 269 269 270 270 270 271 273 274 276 277 277 277 277 276 274 274 273 272 272 272 272 271 271 271 270 271 270 270 270 271 272 273 277 279 282 284 283 281 280 279 276 274 275 276 277 277 278 279 279 280 279 277 275 276 279 279 277 272 266 264 263
269 270 269 268 268 267 267 267 267 268 268 268 268 268 268 268 267 268 268 268 267 267 266 266 266 267 267 268 269 270 272 273 274 276 277 276 276 276 275 274 273 272 272 272 272 271 271 271 270 271 270 269 269 270 271 272 274 276 278 281 282 280 281 280 275 274 276 275 276 276 276 277 278 279 278 276 275 276 273 270 265 264 263 262 261
269 269 267 266 266 266 266 266 266 267 267 267 267 266 267 266 266 266 266 265 264 264 264 264 264 265 265 266 267 269 271 272 273 275 276 276 276 275 274 274 273 273 272 272 272 272 271 271 271 271 270 268 268 269 270 271 273 275 277 280 280 278 278 276 273 273 274 274 275 277 277 276 275 274 270 267 265 264 263 264 262 261 261 261 262
268 268 266 266 266 265 265 265 265 266 266 266 265 265 265 265 265 264 264 263 263 263 263 263 263 264 264 266 267 268 269 270 272 273 275 276 276 276 275 275 275 275 275 274 273 273 273 273 272 271 269 268 268 268 270 274 274 277 277 278 278 277 277 274 275 276 273 274 274 273 271 269 267 265 264 263 263 262 260 260 260 260 259 260 260
267 267 266 265 265 264 264 264 265 265 265 264 264 264 264 264 263 263 262 261 261 261 261 261 262 263 264 265 266 268 269 270 271 272 273 275 277 279 278 276 275 277 279 279 279 275 275 274 273 273 272 270 269 270 274 276 277 278 280 282 281 280 279 275 277 279 275 272 271 269 267 267 266 264 264 263 262 261 260 258 258 262 259 259 259
266 265 265 264 264 264 264 263 264 264 263 262 262 262 262 262 261 261 261 260 260 260 260 261 262 262 263 264 265 265 267 268 269 271 272 273 274 276 280 281 280 279 279 279 280 280 280 278 275 272 273 276 275 274 276 277 278 279 280 282 281 281 280 278 279 275 272 270 268 267 267 266 265 265 264 263 262 261 260 259 258 259 259 260 260
Wind_Speed
21 14 11 8 5 6 6 6 8 8 9 10 12 13 14 15 13 15 13 12 12 12 12 13 14 11 8 12 14 11 11 11 10 10 11 11 11 11 11 10 11 11 10 11 11 10 9 8 8 7 7 7 8 9 7 7 5 5 6 3 5 4 1 1 1 2 5 3 3 5 5 3 1 2 4 5 4 3 3 4 3 5 4 5 3
11 10 10 3 5 6 6 7 6 8 9 10 14 15 14 12 15 14 11 13 14 15 14 13 14 16 17 17 15 13 13 13 13 11 12 10 10 11 10 10 11 11 10 10 10 11 10 9 9 10 9 8 7 4 5 5 5 5 6 4 1 3 2 1 1 3 2 2 4 1 4 3 2 1 2 4 3 3 3 3 3 5 5 4 4
13 10 9 5 5 6 6 7 8 11 10 14 14 11 12 13 13 11 12 14 14 14 13 15 12 9 10 7 10 7 7 7 7 8 8 9 9 9 9 9 10 10 11 11 11 11 11 10 10 9 9 8 8 8 7 8 8 9 9 8 5 1 2 1 1 2 5 2 2 4 1 1 0 1 1 1 4 1 2 4 3 5 4 4 5
16 12 12 6 5 5 4 5 7 7 7 6 8 11 10 12 11 12 13 13 13 14 14 10 9 6 3 3 4 4 5 4 4 5 6 7 9 10 10 11 11 11 11 11 10 11 12 12 10 10 10 9 10 10 10 10 9 8 8 6 7 5 2 1 0 1 5 8 1 1 1 1 2 2 2 3 1 2 2 3 2 3 3 4 6
16 18 15 10 5 5 5 6 5 7 9 10 10 11 10 14 13 13 11 13 11 12 12 10 9 7 6 6 6 6 5 6 5 5 8 8 8 10 11 10 12 12 12 13 12 13 11 11 11 11 10 10 9 9 10 12 12 11 10 8 9 9 7 2 1 1 1 1 7 5 2 0 4 1 1 2 2 1 1 2 1 3 3 4 5
11 15 17 10 7 6 5 5 5 8 10 10 10 11 8 9 9 9 8 9 10 11 12 11 12 12 12 10 10 9 9 10 14 16 11 13 15 10 10 13 13 12 11 12 12 11 12 12 11 11 11 10 10 10 9 7 8 10 11 10 9 5 8 6 3 0 0 1 0 1 3 3 4 3 2 2 1 0 2 2 1 2 1 4 4
5 8 9 9 6 6 6 6 8 8 12 7 6 7 8 8 10 12 11 10 10 11 13 11 11 12 15 16 15 16 17 14 12 10 13 11 9 11 11 9 10 12 11 11 11 11 11 11 11 11 11 11 9 8 9 11 11 11 8 8 8 7 7 6 10 6 2 1 2 3 4 2 5 7 5 2 1 1 0 0 1 1 1 2 2
8 8 7 6 6 6 9 8 7 11 6 3 5 5 8 9 10 12 10 11 11 12 14 14 14 13 13 13 12 13 15 13 11 11 10 9 10 10 9 10 10 11 11 11 11 12 11 11 11 11 11 10 10 11 11 9 7 5 7 7 5 7 9 10 8 9 9 5 2 4 4 5 4 5 3 6 4 1 1 1 1 2 2 2 1
5 6 9 9 9 7 7 8 6 6 5 4 5 5 5 5 7 8 10 10 10 13 14 14 13 14 14 13 13 11 9 6 6 5 8 8 10 8 9 10 10 10 10 11 11 11 11 11 11 11 11 11 10 9 8 8 10 10 9 8 8 7 6 5 10 10 7 9 7 2 5 5 5 3 2 3 4 4 5 2 4 3 2 3 3
6 5 8 8 8 7 5 6 6 5 4 2 2 2 4 4 6 7 9 9 10 12 13 14 14 12 12 13 14 10 7 4 7 8 8 8 10 10 9 9 10 10 10 10 10 11 11 11 11 12 12 11 10 10 9 8 8 8 10 10 8 8 5 7 10 9 7 7 8 10 6 4 4 2 1 3 1 1 4 4 3 2 3 2 2
8 8 6 8 7 6 4 5 5 5 4 2 1 1 3 4 5 7 7 7 9 13 14 16 14 14 14 15 15 14 11 9 9 9 8 8 11 11 10 10 9 10 9 9 11 11 11 11 12 12 10 10 10 10 11 10 10 9 8 6 7 9 8 7 4 5 6 7 7 10 11 12 11 8 9 6 5 4 2 3 3 4 3 3 3
6 6 10 10 10 8 7 7 6 4 2 2 1 1 2 5 6 8 7 8 8 10 12 14 14 15 13 14 15 14 13 12 14 14 13 14 13 12 9 8 9 9 9 10 11 12 11 11 10 10 10 10 11 10 9 9 8 7 7 8 8 7 4 6 6 8 8 7 7 7 8 7 5 6 8 9 10 6 7 5 6 1 4 4 4
5 8 10 12 12 12 10 8 7 6 4 2 1 0 2 3 5 8 10 8 9 9 12 12 13 14 14 13 12 11 12 13 13 12 12 13 12 11 11 12 9 10 12 13 12 13 11 11 11 12 11 11 11 10 10 9 9 8 8 8 7 9 9 9 9 10 11 11 11 7 5 6 6 3 7 8 4 5 6 5 2 3 5 1 2
5 5 5 7 7 9 8 7 6 6 5 3 1 1 2 2 4 6 7 7 7 9 11 12 14 13 11 12 12 11 12 12 11 11 11 11 11 13 14 14 14 16 14 15 13 12 12 13 12 12 12 11 11 11 10 10 9 9 9 9 9 8 6 8 8 7 7 6 5 8 7 7 5 5 6 8 8 8 5 7 7 4 3 4 2
3 4 4 5 7 5 7 7 7 5 4 4 3 3 3 4 4 6 7 7 8 11 10 13 11 10 9 10 11 10 11 11 11 10 11 12 11 12 12 11 12 13 13 11 10 13 13 11 12 12 12 12 11 10 10 9 9 8 8 8 7 6 7 7 6 7 9 8 7 7 7 6 6 6 7 7 7 8 9 8 9 6 2 3 2
3 4 4 5 5 7 6 7 7 5 4 3 4 4 5 6 6 7 8 7 8 9 10 10 10 8 9 10 11 9 9 9 9 10 11 11 12 13 13 13 12 10 10 11 12 13 14 14 12 13 12 11 11 11 11 10 10 10 8 8 9 5 7 8 7 7 8 8 7 5 6 7 6 6 6 6 6 5 5 6 6 5 5 3 1
6 7 6 7 7 6 4 6 8 7 5 5 6 6 7 7 7 8 9 6 8 8 8 7 8 8 10 10 9 9 10 12 13 12 10 8 9 10 10 11 9 10 11 10 12 12 13 13 13 12 12 12 11 11 11 10 10 10 9 9 9 7 7 9 6 8 6 6 6 8 7 7 6 5 4 5 5 5 5 5 6 7 7 4 1
5 5 5 6 6 5 5 6 6 7 8 7 6 5 4 4 5 7 7 10 8 7 9 8 9 11 11 12 11 12 11 11 9 8 6 6 8 9 8 9 12 10 9 9 11 12 12 13 12 12 12 11 12 11 11 11 10 10 10 9 8 8 8 5 6 6 6 6 6 6 5 7 5 6 6 6 6 6 6 6 6 3 6 8 6
7 7 5 3 6 9 10 9 8 10 7 6 7 5 4 4 4 6 8 6 5 4 5 6 8 9 9 11 11 11 11 10 7 4 4 7 9 9 10 10 7 9 11 11 11 12 12 13 13 12 12 12 11 11 11 10 11 10 9 9 8 9 9 9 7 8 7 8 8 9 6 6 6 7 6 6 5 6 6 6 5 4 4 4 7
8 9 9 10 10 9 11 13 12 12 10 9 6 4 4 3 4 5 5 5 8 7 5 8 8 8 8 5 8 10 10 9 8 7 8 9 9 7 7 6 10 8 9 10 12 13 14 14 13 13 13 12 13 12 12 12 11 11 11 10 9 10 10 10 8 7 7 8 9 9 8 7 7 6 7 7 7 6 6 6 6 6 5 4 6
13 14 15 18 18 16 12 7 6 5 6 6 7 7 5 4 3 4 5 5 4 5 5 6 4 7 8 11 10 7 8 6 6 7 9 9 8 9 10 10 5 11 10 12 13 13 14 14 14 14 14 14 14 14 12 12 12 12 11 11 10 12 12 10 9 9 7 8 9 8 8 7 7 8 7 7 6 7 6 5 5 6 6 6 7
17 17 18 19 20 21 21 21 21 21 21 20 15 12 9 7 4 4 4 5 5 5 4 5 5 6 8 10 9 6 6 6 8 8 10 10 10 11 11 9 12 11 10 13 13 12 13 14 14 15 14 14 14 15 14 14 14 14 13 11 12 13 13 11 10 11 10 8 8 9 8 8 8 8 7 8 7 7 7 7 7 7 7 7 6
13 13 13 12 12 12 12 15 17 16 15 14 14 13 12 9 7 6 5 8 6 7 6 7 7 7 9 8 7 8 6 7 9 9 11 12 12 11 10 12 13 11 11 12 13 13 13 14 14 14 14 14 15 15 15 15 16 17 17 15 14 15 15 15 14 13 12 10 10 10 9 8 7 8 8 7 7 7 7 8 8 6 7 7 7
13 12 11 10 9 11 15 16 16 15 15 15 13 13 13 13 11 7 8 9 7 6 6 6 7 9 8 7 9 8 8 10 10 11 13 14 13 11 10 12 12 9 11 11 11 13 13 14 15 14 15 15 16 15 15 16 17 17 17 17 15 15 15 15 15 14 13 13 13 11 10 11 10 10 9 8 7 7 8 7 7 6 7 7 6
15 14 13 12 15 16 13 11 12 12 13 13 14 14 14 15 14 13 10 8 7 6 6 7 7 9 9 9 10 8 10 12 13 12 15 14 12 12 10 12 10 11 12 10 12 12 13 14 15 17 17 17 17 16 16 15 15 15 16 15 15 15 15 15 15 14 13 14 14 14 12 12 11 11 9 9 9 10 8 7 8 7 7 6 5
13 15 16 15 11 11 13 13 12 12 12 12 12 12 12 13 14 13 14 13 10 6 6 7 7 8 10 10 10 9 11 13 15 15 15 13 12 11 11 10 11 13 11 12 13 12 13 15 15 15 16 16 14 14 16 16 16 14 14 14 13 14 14 14 14 13 14 14 14 14 13 13 13 14 13 11 10 11 9 8 8 7 6 6 7
11 11 10 12 15 15 13 13 12 12 12 11 11 12 11 11 13 14 14 14 14 14 10 6 6 7 8 8 8 10 12 12 13 14 12 10 11 12 12 13 11 13 13 12 12 13 13 14 15 14 15 15 14 14 14 14 14 14 15 15 14 14 14 13 13 14 13 13 13 13 13 14 15 14 13 13 12 11 10 10 9 8 7 7 7
12 13 15 14 12 12 13 13 13 13 13 12 10 10 10 10 11 12 12 12 11 13 14 15 14 12 9 9 8 9 10 12 12 11 11 12 11 11 12 12 10 13 13 14 14 15 13 12 13 12 13 12 13 14 14 14 14 15 14 15 15 15 15 13 13 13 13 13 13 13 13 14 14 13 12 11 12 12 9 9 8 8 8 8 7
13 13 13 13 13 12 13 13 12 13 14 14 14 14 12 11 11 11 11 12 11 11 12 11 11 10 12 13 12 9 8 10 11 10 10 11 12 12 11 10 11 13 12 13 12 12 12 12 12 12 12 12 13 14 13 14 14 14 14 15 15 15 15 15 13 13 12 12 11 11 11 11 11 12 14 12 12 11 10 11 9 9 9 8 7
11 11 11 11 12 11 11 12 13 13 14 14 13 14 14 14 14 13 13 13 12 12 12 13 12 11 11 11 11 11 10 10 10 11 12 11 10 10 10 11 12 12 11 10 10 12 13 14 13 13 12 12 13 12 12 19 18 15 16 13 12 12 13 14 14 13 12 12 12 11 10 16 17 17 17 17 18 17 15 10 10 11 10 9 8
10 11 11 10 11 12 12 13 13 14 13 12 12 11 11 11 12 14 13 13 11 12 12 11 12 12 12 11 10 10 9 10 11 11 10 10 11 10 10 10 10 9 10 10 10 13 14 13 14 14 14 13 12 11 17 22 24 22 16 14 14 13 13 12 12 14 14 14 12 11 10 14 16 17 15 20 19 20 19 17 16 15 13 12 11
7 8 9 11 10 10 11 12 13 13 13 13 13 12 11 12 11 11 11 11 12 13 13 11 10 10 9 9 9 10 9 9 8 10 10 10 9 8 9 9 9 9 9 9 13 14 13 12 12 14 15 14 13 12 20 23 24 24 20 15 13 13 13 14 14 14 12 12 13 10 9 10 11 13 13 14 17 20 19 18 19 18 19 18 14
5 6 6 8 9 9 8 9 9 10 12 14 13 13 13 13 13 12 10 9 8 9 11 12 12 13 13 12 10 8 8 8 8 8 7 7 7 8 8 8 10 10 8 11 13 12 14 13 13 15 15 14 13 15 22 24 25 25 25 18 12 12 13 14 14 14 14 14 12 12 9 8 10 19 14 12 12 13 18 20 19 20 20 19 17
5 5 6 7 8 8 9 8 8 8 8 9 9 10 12 13 13 13 12 12 12 11 9 10 9 11 12 13 13 13 13 11 8 7 6 6 7 9 9 8 6 6 9 11 11 13 12 12 13 13 13 12 13 14 22 24 24 25 24 20 12 13 13 13 14 14 13 12 9 10 14 10 10 13 12 13 13 12 13 13 14 13 12 15 18
8 8 7 7 8 9 8 9 9 9 9 10 11 10 12 12 12 14 14 15 15 14 13 12 11 12 11 12 12 13 14 13 11 9 7 6 7 7 7 7 7 9 11 12 12 12 12 11 11 11 11 12 11 16 22 24 24 25 24 19 11 10 10 10 11 11 12 12 8 8 10 10 14 14 12 16 14 14 13 12 12 11 10 9 7
7 6 7 7 8 8 8 9 8 8 9 9 9 10 12 13 12 11 12 12 12 14 15 15 15 14 13 12 12 13 13 12 11 9 8 8 7 7 8 6 6 7 7 7 7 8 10 11 11 11 11 12 10 19 22 24 25 24 25 14 11 11 11 11 11 12 11 8 7 9 9 12 14 13 17 25 18 13 12 12 12 8 7 6 5
7 6 7 6 5 6 7 7 7 7 9 9 9 11 12 12 12 11 11 12 12 12 12 13 14 15 16 16 15 14 13 12 11 11 10 9 8 8 7 4 6 7 8 9 9 10 9 10 11 11 12 11 8 16 23 24 25 26 20 12 12 11 10 11 11 11 11 11 12 10 9 11 12 10 19 24 23 19 11 13 11 11 8 7 6
8 6 6 5 5 5 6 6 7 8 8 8 10 11 12 11 12 11 12 12 12 12 12 11 12 13 13 13 13 13 14 14 12 12 11 10 8 6 7 5 7 8 9 10 8 8 8 8 10 11 12 11 10 14 23 24 25 27 19 13 12 11 10 10 9 9 9 9 11 20 16 9 8 12 22 25 26 20 13 13 12 11 10 9 8
6 6 6 6 4 5 6 5 5 8 8 8 11 11 11 11 11 12 11 12 12 13 13 13 14 13 12 12 11 11 12 12 13 13 11 11 10 9 7 4 6 7 8 7 6 8 8 7 8 10 9 11 9 11 22 24 26 27 18 11 12 12 12 12 11 10 10 9 11 15 20 14 12 15 24 24 26 20 12 13 13 11 11 11 8
6 5 6 5 4 4 5 5 7 8 7 8 8 9 9 11 11 10 11 11 11 12 13 13 13 14 13 12 11 11 11 11 12 13 11 10 9 8 7 6 6 6 7 6 6 8 9 8 7 8 9 10 9 9 15 25 25 28 23 12 11 13 13 12 10 11 11 10 10 11 16 22 21 23 23 25 25 24 13 11 10 10 11 9 7
5 6 5 3 4 4 5 6 5 6 6 6 6 7 9 9 10 11 11 11 12 12 12 13 14 14 14 12 11 10 12 13 11 11 10 9 8 8 8 6 8 6 6 7 8 8 8 7 6 7 7 9 9 10 13 23 26 27 26 19 12 14 12 12 12 12 12 12 12 11 10 20 23 24 24 25 25 24 18 11 11 9 9 8 9
5 6 4 4 5 6 7 7 6 6 6 5 6 8 9 10 10 12 11 11 11 12 12 13 14 14 13 11 11 12 11 11 11 9 10 11 9 7 7 7 6 6 8 10 8 7 7 6 6 6 7 9 8 14 11 19 25 28 27 24 14 13 13 13 12 12 11 10 8 8 8 19 26 24 24 25 27 25 24 10 12 15 16 18 11
7 7 5 4 6 8 8 9 8 5 5 6 6 9 10 9 11 13 10 10 12 12 13 14 14 14 12 13 13 14 14 11 11 11 10 12 10 7 8 7 7 8 9 10 8 7 6 6 5 6 6 7 8 10 17 15 22 26 28 24 22 14 20 12 12 13 13 9 7 8 10 21 24 24 24 24 24 25 21 12 20 20 19 20 11
6 5 6 4 6 8 10 10 9 7 6 6 6 10 11 12 13 9 7 10 11 13 13 14 14 13 14 13 13 13 14 13 13 12 10 11 11 9 7 7 7 8 8 9 8 7 7 8 8 7 7 7 8 7 13 20 17 26 27 29 26 22 22 12 10 9 8 6 6 6 12 21 24 24 25 24 23 22 14 19 22 21 21 14 8
9 9 6 4 8 9 10 12 13 11 7 6 6 9 13 16 12 6 10 11 12 12 13 14 14 14 14 14 13 13 14 13 15 12 12 11 11 9 9 8 8 9 9 10 9 8 9 9 8 9 8 7 7 8 8 14 21 21 28 29 29 26 23 21 11 7 5 7 8 18 20 22 22 22 23 23 20 21 22 19 21 21 13 7 7
7 8 7 6 7 7 9 12 15 14 10 6 7 7 12 15 10 9 11 11 13 13 13 14 15 15 16 15 17 16 15 13 15 12 11 11 11 10 10 10 8 10 10 10 10 9 9 9 9 9 9 11 9 8 9 10 12 15 17 26 30 29 28 25 18 12 17 19 19 20 22 21 20 19 15 11 8 9 18 18 16 13 7 6 6
10 10 7 8 8 10 12 12 15 16 11 9 10 10 11 11 11 10 10 12 13 15 15 15 14 15 15 14 14 14 12 13 14 12 11 11 10 10 10 11 10 11 11 11 11 10 10 10 10 10 9 9 12 11 9 9 10 11 10 12 17 19 27 25 18 15 18 15 17 17 13 17 12 18 14 9 9 8 9 8 6 5 5 5 5
9 8 7 8 10 12 13 14 15 16 12 11 12 12 12 11 10 10 10 11 14 15 14 15 15 14 11 14 12 18 18 13 12 14 11 10 10 10 11 12 12 12 12 12 11 11 12 12 11 10 9 10 11 10 11 11 11 11 12 11 10 11 13 11 11 10 11 13 14 16 18 13 11 9 7 6 5 5 5 6 5 5 5 4 5
14 11 7 10 10 13 13 14 17 16 13 13 14 13 13 11 10 9 10 13 15 17 15 16 15 13 13 11 9 12 12 14 13 13 12 12 12 11 12 13 14 12 12 13 12 13 12 11 10 10 12 14 11 13 14 14 14 17 15 14 12 13 12 11 15 21 15 12 12 12 10 8 8 8 8 7 6 6 4 4 6 5 4 4 4
12 9 9 11 11 12 14 16 17 14 13 14 15 15 13 10 9 10 10 11 14 15 15 16 13 12 13 13 12 11 12 11 13 12 13 14 14 19 16 13 13 15 22 22 17 13 12 10 11 10 11 15 17 16 15 22 22 23 24 22 17 20 19 15 22 31 19 14 13 13 12 13 12 11 11 10 9 7 7 5 4 6 4 3 4
13 12 13 12 13 13 13 16 16 13 13 14 14 16 13 9 7 9 9 12 13 14 14 14 14 13 14 13 12 13 11 11 11 13 13 14 13 12 22 29 26 18 18 23 26 25 20 16 13 10 11 20 14 11 19 24 25 26 26 26 23 25 25 27 30 21 15 14 13 13 12 11 11 11 11 11 10 10 8 6 5 6 5 6 5
Wind_Direction
256 262 267 259 239 224 219 206 213 211 210 199 200 202 199 197 185 198 189 180 178 177 181 178 180 181 184 195 200 190 188 187 190 194 192 196 189 188 185 184 178 174 174 170 174 169 170 165 163 170 172 175 180 189 179 170 168 158 146 133 132 119 82 22 240 125 117 66 21 53 41 26 33 74 61 39 28 25 46 60 59 60 36 39 29
275 281 271 267 238 222 210 204 193 201 219 203 205 204 200 192 193 194 177 184 187 187 185 186 190 189 185 192 193 185 183 187 197 195 197 192 189 188 186 182 177 178 174 175 172 170 169 171 174 176 175 182 182 165 167 168 158 158 157 105 32 132 149 197 200 125 40 142 148 17 10 354 23 22 21 9 358 7 24 53 56 69 44 26 28
276 269 273 247 232 226 207 210 210 211 208 203 210 199 197 196 201 185 187 185 190 187 183 194 191 189 191 190 189 186 199 203 198 189 180 185 186 184 183 181 178 179 177 177 173 178 175 172 182 173 177 170 166 173 177 180 179 175 181 157 131 56 130 188 148 201 139 129 111 90 14 48 324 350 349 17 342 336 12 49 47 69 51 44 45
287 284 279 257 223 233 225 232 224 221 224 219 210 204 200 202 195 189 190 189 187 189 190 185 178 170 151 108 142 133 166 155 153 154 174 166 184 183 188 183 181 182 178 180 180 179 178 180 173 175 179 179 177 174 181 186 182 185 188 189 153 134 170 187 108 189 143 138 79 107 188 115 325 263 300 290 331 25 47 59 36 67 62 50 42
284 288 286 278 268 276 232 234 226 223 222 217 205 203 201 202 196 190 187 189 189 184 180 164 146 135 118 90 99 88 79 135 145 189 189 188 184 192 192 181 184 184 183 185 182 182 181 179 177 180 177 181 179 182 186 191 188 187 182 176 190 155 178 168 191 71 119 274 143 110 69 66 218 212 48 290 351 70 19 8 36 40 66 65 46
263 277 280 321 352 316 293 272 239 237 234 225 210 210 198 195 186 183 179 181 184 180 173 166 172 167 160 159 168 177 181 180 195 196 182 190 200 186 186 191 187 187 184 185 187 180 182 182 179 176 180 179 186 190 187 176 189 188 193 189 190 207 149 155 132 152 134 83 192 132 159 171 180 224 127 240 320 317 300 314 337 6 112 69 47
273 282 327 346 323 302 278 252 236 238 239 229 221 210 201 190 184 182 180 179 177 174 172 172 176 182 186 188 186 187 193 205 200 186 187 195 185 188 192 187 190 185 187 186 187 184 181 181 182 182 182 185 184 180 186 194 192 196 183 191 196 162 141 145 162 169 111 24 51 75 85 80 130 132 199 89 312 301 289 335 190 351 5 49 29
326 330 331 300 281 263 267 254 237 234 247 217 223 214 200 193 180 181 179 178 178 173 178 180 182 185 190 196 197 201 204 201 185 191 187 178 181 183 178 187 189 192 186 188 188 185 182 183 183 182 184 187 182 191 193 192 189 197 191 196 179 187 175 159 165 167 162 183 113 88 78 76 64 74 113 159 159 181 283 314 290 335 13 312 293
17 359 323 315 309 293 272 281 280 282 274 224 222 217 209 198 186 180 182 177 176 175 178 186 187 187 192 194 203 213 208 192 166 163 173 171 182 177 179 184 188 194 190 188 189 187 186 184 182 185 187 187 188 190 194 189 191 185 184 185 193 199 197 164 150 181 171 160 139 75 84 65 57 58 79 80 134 141 264 278 276 329 10 311 313
1 346 315 311 303 299 301 302 315 317 323 286 246 199 202 190 189 182 187 180 174 177 182 186 189 184 192 200 204 203 188 156 155 169 174 171 185 184 185 182 189 190 194 190 186 190 188 183 185 189 189 185 187 191 186 187 194 197 194 192 188 187 190 175 176 173 178 159 167 149 135 107 63 42 48 113 71 129 176 199 229 236 299 285 307
345 332 310 310 305 301 334 337 326 344 356 4 331 202 187 184 185 192 195 183 182 183 182 188 189 190 197 198 199 196 186 167 166 177 169 174 190 189 188 191 185 193 186 191 194 189 190 187 188 191 187 184 187 186 191 190 193 194 194 192 194 186 184 184 161 160 155 160 163 167 166 170 171 173 183 183 161 151 120 221 241 250 205 316 291
304 318 338 334 334 353 2 345 340 326 359 10 359 330 214 194 183 191 198 196 190 190 189 192 192 198 200 198 199 198 183 183 187 185 184 186 188 188 186 178 191 189 190 195 197 192 189 191 189 185 188 187 192 190 189 189 186 186 186 193 195 196 184 174 164 162 169 171 181 184 182 177 162 161 173 169 173 184 163 155 162 208 297 229 276
325 348 343 339 343 350 359 342 333 333 320 319 327 345 303 272 214 198 205 195 194 193 197 197 198 203 199 199 202 195 194 195 196 191 187 188 186 182 177 190 183 188 200 199 201 191 188 187 188 189 191 194 190 186 191 182 179 184 189 193 193 190 189 184 177 183 176 176 187 189 168 177 186 160 145 161 155 128 146 125 176 166 194 239 248
347 337 323 315 324 326 325 328 317 301 298 287 270 175 174 245 276 243 227 199 196 198 202 203 209 206 202 201 199 194 200 196 198 198 192 193 187 188 187 188 188 197 194 201 194 186 191 197 191 194 194 189 189 189 184 184 179 183 185 191 196 198 186 193 190 179 186 185 153 166 183 183 175 162 154 151 157 144 154 174 147 192 190 207 218
342 305 293 291 297 301 315 315 309 294 262 256 225 198 184 189 209 247 247 228 206 205 201 208 210 212 212 209 204 201 201 197 202 199 190 190 193 192 195 192 196 198 198 195 176 187 194 190 194 194 192 190 185 184 184 182 182 178 184 193 191 188 193 186 189 177 180 179 178 180 170 173 175 168 162 174 167 176 165 169 159 151 188 175 192
300 311 329 320 306 316 318 315 311 304 284 250 225 203 197 215 199 209 233 238 232 220 215 208 208 208 215 216 216 210 208 204 205 203 202 193 192 192 194 195 199 190 191 183 190 184 190 192 190 196 191 187 188 186 182 181 180 180 181 183 192 179 187 190 190 182 188 179 176 161 158 183 174 173 176 167 172 160 158 158 159 148 151 263 12
331 345 339 319 324 313 294 312 327 334 304 261 251 224 208 203 212 215 212 225 233 236 234 218 212 208 216 215 214 217 218 215 212 208 201 193 191 197 197 199 190 189 191 186 181 188 188 190 191 191 189 188 187 188 185 182 178 182 184 183 189 180 184 194 179 186 185 171 173 177 177 169 175 165 162 162 160 156 165 169 181 168 158 138 168
296 286 280 279 274 296 339 338 336 324 318 311 280 270 263 256 245 232 218 216 218 223 228 228 218 214 212 214 216 215 217 224 223 219 207 196 199 198 197 190 199 191 179 182 181 182 187 189 190 190 190 186 189 185 183 182 177 185 186 187 183 166 180 180 185 178 176 172 171 173 170 172 167 167 173 168 167 166 165 178 187 183 161 158 165
330 320 306 296 349 17 30 8 349 343 342 327 315 311 314 317 315 305 296 286 248 216 242 255 243 238 228 219 214 217 220 222 222 215 197 210 211 209 204 203 180 182 183 179 180 184 186 189 189 190 186 188 185 184 180 180 180 183 183 183 173 172 180 186 185 177 177 171 176 180 175 170 166 170 164 170 168 165 172 171 179 165 174 141 144
333 340 348 7 31 49 24 12 9 1 358 347 325 318 339 351 337 317 301 307 312 302 284 255 257 260 258 244 229 222 223 222 214 204 204 210 212 213 214 206 206 186 190 178 185 187 186 187 191 189 186 184 184 184 181 182 181 188 182 181 179 173 182 188 183 181 174 181 178 182 180 173 169 163 169 173 172 170 165 170 171 168 166 149 139
359 3 6 13 13 14 25 36 39 41 40 23 11 5 6 6 342 305 301 302 295 276 277 268 280 272 282 267 255 238 234 224 219 214 217 215 209 207 207 207 184 203 185 189 190 189 188 190 188 190 188 186 185 183 183 181 184 187 186 184 176 180 185 187 175 182 183 180 184 182 179 177 165 170 174 170 171 168 164 167 165 166 166 165 159
14 16 16 12 9 6 5 6 11 13 12 10 3 3 5 349 314 303 297 280 262 269 264 273 275 273 265 261 270 280 258 227 223 220 224 219 215 212 206 189 204 201 191 198 193 190 190 189 190 192 190 189 188 187 184 183 185 186 187 184 183 183 186 183 178 187 184 183 179 180 182 173 175 175 170 176 171 168 171 166 179 175 175 174 173
16 21 21 21 18 13 6 10 11 11 8 6 5 6 359 347 334 319 299 283 261 262 257 258 256 252 250 253 259 255 252 243 231 228 228 224 221 217 204 207 210 202 199 199 196 191 191 191 193 192 190 190 190 191 189 187 190 188 187 187 186 185 185 183 185 189 183 177 179 184 182 173 171 174 180 178 168 174 173 177 180 178 176 176 176
14 19 24 19 15 13 16 11 8 6 5 6 5 6 5 2 352 336 318 303 293 276 268 262 260 261 259 257 250 245 241 238 235 232 231 227 222 219 209 215 213 201 203 204 200 197 190 191 193 193 193 194 194 194 191 194 192 190 189 189 186 188 189 189 188 184 181 179 183 179 184 176 175 179 179 174 178 173 179 181 178 184 177 175 175
14 14 10 14 17 17 14 9 7 4 4 5 6 6 5 0 356 354 340 316 302 288 273 265 259 261 258 253 252 241 240 239 238 238 236 232 226 224 217 218 208 208 204 197 203 199 198 195 195 195 196 197 197 193 192 194 195 195 193 189 188 189 191 191 189 186 181 181 182 187 178 174 177 178 178 180 177 181 182 179 184 183 178 169 163
10 9 13 14 8 7 10 9 7 6 4 3 3 5 3 360 354 352 350 346 336 313 287 280 267 261 262 254 252 245 242 240 240 241 240 234 229 226 221 218 211 213 204 204 203 200 201 200 202 200 199 200 195 195 196 195 194 191 191 191 189 190 192 190 188 186 183 183 184 183 179 177 180 183 185 180 176 180 177 184 184 182 171 165 167
13 10 6 6 11 9 4 4 3 1 2 0 360 1 1 358 353 352 348 345 343 342 333 304 277 261 266 258 246 241 240 242 243 243 243 236 229 224 220 219 209 213 209 207 206 207 208 203 203 200 201 197 196 197 197 196 194 193 191 189 188 190 191 191 191 187 184 185 185 183 179 180 185 187 181 179 177 176 180 185 182 175 170 170 173
10 12 11 8 1 0 1 358 357 356 353 356 358 0 359 357 353 349 345 345 345 341 339 337 334 325 304 281 262 254 250 248 248 247 243 239 233 228 224 220 208 214 212 209 206 208 211 208 207 202 202 196 198 200 198 196 194 193 191 193 190 188 188 189 188 187 185 186 185 184 183 186 187 186 181 176 173 177 171 177 176 171 174 173 172
8 2 1 1 359 355 352 352 350 350 352 352 352 353 354 355 354 349 346 345 343 340 339 336 326 318 314 307 300 282 268 263 256 252 247 241 235 231 227 220 214 217 216 214 208 206 206 208 207 204 201 198 201 203 200 194 192 192 194 195 193 191 187 186 185 186 185 183 183 185 185 184 184 181 180 176 178 172 167 172 176 172 176 172 167
359 356 353 350 349 349 348 348 348 349 349 349 350 350 349 350 349 347 344 343 344 344 344 343 343 334 321 310 300 294 286 276 269 258 250 243 238 232 225 223 221 219 217 213 209 207 207 206 202 203 201 201 206 206 198 193 189 190 190 191 190 193 191 188 184 182 183 184 184 181 180 179 179 179 178 178 180 181 183 176 169 171 173 169 170
348 348 347 344 343 343 345 348 347 346 344 343 342 341 341 344 344 342 342 339 341 341 345 344 341 339 332 324 314 298 285 274 264 260 258 250 241 234 228 226 224 216 214 210 205 209 211 206 202 200 201 206 208 206 196 196 194 189 185 188 187 188 190 189 188 184 184 182 180 178 172 177 177 179 179 181 182 183 183 182 180 179 181 174 167
332 328 334 340 340 340 342 341 341 339 339 341 340 339 340 342 340 337 335 334 339 340 339 337 334 334 334 328 321 307 290 272 263 258 253 249 245 238 233 227 221 218 214 207 211 212 211 208 205 203 205 207 208 200 197 197 195 192 187 187 188 187 187 189 187 187 185 180 177 163 169 176 178 178 174 180 183 185 182 180 182 184 189 189 184
318 309 320 327 331 331 331 334 336 336 336 335 336 335 338 338 334 330 327 329 333 333 331 332 335 338 339 338 331 322 304 292 279 267 261 256 246 240 236 227 222 219 210 214 218 211 213 210 206 205 207 205 209 198 199 197 196 194 190 184 190 188 187 192 188 187 184 180 175 170 160 171 177 179 175 177 175 181 183 181 185 190 195 197 193
305 309 322 321 324 325 325 328 327 325 325 321 329 328 328 331 328 328 331 332 334 334 334 328 331 335 336 336 337 336 330 320 306 291 280 267 254 245 240 232 229 215 216 221 221 220 218 212 211 210 210 207 208 198 199 198 197 195 191 184 190 187 192 193 191 187 184 180 161 164 172 171 170 177 177 176 174 176 177 181 188 194 199 204 203
314 318 319 318 316 315 317 324 329 331 330 330 329 333 330 328 332 331 332 334 335 333 333 334 334 334 337 337 337 335 331 327 323 314 296 274 258 257 248 234 222 217 217 218 217 219 218 215 213 210 211 210 207 194 198 197 196 194 192 182 185 187 190 193 191 189 189 182 163 160 166 161 170 178 179 176 174 176 175 181 188 194 196 195 192
286 289 295 304 308 308 312 315 318 325 325 327 324 330 331 325 327 326 325 328 328 330 329 333 335 335 336 336 335 331 327 324 322 318 307 288 272 255 250 238 226 233 231 231 233 226 221 218 214 210 211 213 203 194 197 196 194 192 188 180 182 185 188 188 189 188 185 173 162 165 161 169 175 177 178 178 175 168 170 175 181 183 185 185 187
266 264 275 281 285 291 300 305 311 318 322 322 329 331 327 323 323 324 326 324 326 325 327 329 329 331 333 333 333 329 324 321 320 319 310 296 283 270 257 239 231 229 223 222 225 220 219 217 213 211 211 213 202 196 196 195 193 190 185 181 180 184 189 190 191 184 178 175 179 171 169 174 176 172 178 179 176 171 167 177 180 186 186 190 195
258 262 264 278 284 286 293 298 310 315 317 325 332 330 325 322 322 323 325 322 322 320 323 324 321 323 323 323 322 321 320 318 318 313 304 299 286 273 265 236 232 235 228 225 219 224 221 217 214 212 209 208 205 198 196 194 193 191 183 176 175 178 182 184 186 186 186 184 181 182 180 161 159 169 178 179 180 178 174 179 181 182 184 194 197
260 265 274 275 270 282 289 298 309 311 317 334 329 325 322 318 319 320 319 316 317 320 324 322 319 317 315 313 313 313 313 312 310 306 305 301 296 286 275 256 246 244 244 236 217 220 223 216 217 212 206 207 202 198 199 197 195 194 185 167 171 179 181 187 181 182 186 183 184 186 184 178 169 174 180 182 181 178 175 181 181 179 187 196 189
270 274 272 276 287 301 296 300 306 304 318 325 319 316 313 313 312 312 309 308 313 318 318 315 315 314 310 308 308 310 309 308 303 299 297 290 289 290 274 259 254 245 249 235 226 220 216 216 206 203 205 203 196 196 202 200 198 198 186 163 174 179 186 183 180 181 179 188 185 184 184 183 179 180 185 184 184 181 174 178 178 183 188 189 172
272 272 274 287 282 274 276 279 281 293 307 311 309 308 303 301 300 299 299 304 311 316 316 318 315 310 305 303 307 308 307 304 299 294 293 289 280 271 269 256 252 249 248 243 230 229 221 216 199 204 201 204 194 191 205 203 204 202 192 167 183 187 183 180 182 180 187 184 184 183 173 181 181 182 187 191 190 185 177 178 183 182 183 174 171
278 275 292 302 296 288 285 283 277 287 298 301 301 297 296 296 295 293 297 307 314 317 318 315 309 303 301 306 311 310 306 299 298 296 290 284 276 264 261 255 248 240 236 237 233 226 226 221 209 198 201 205 194 192 194 206 207 208 202 174 179 191 180 178 179 189 187 188 178 159 152 182 184 185 189 192 191 190 184 170 186 185 188 193 184
289 292 287 297 296 287 278 278 285 288 292 291 292 289 286 287 284 289 306 315 317 316 314 308 303 301 307 312 311 311 308 304 297 292 282 278 276 262 253 243 241 237 235 238 230 226 221 225 223 219 207 203 200 199 196 200 209 209 209 186 183 180 186 180 185 186 188 180 155 160 163 181 184 186 189 192 192 192 188 177 188 196 196 197 162
264 257 275 282 278 283 289 287 285 284 285 287 291 290 288 287 282 295 314 313 313 311 307 303 302 304 307 307 308 305 305 303 295 287 277 271 268 257 249 235 233 231 233 233 230 220 219 220 215 218 219 207 199 199 206 206 208 209 211 203 192 184 185 180 183 187 178 157 139 142 169 179 185 186 188 190 191 191 186 179 188 194 195 164 120
285 288 289 286 276 286 291 292 292 293 289 286 278 281 285 284 289 328 315 311 308 305 303 302 306 307 305 304 304 300 295 296 293 282 272 266 261 248 246 239 226 232 229 229 229 211 216 219 217 218 213 206 204 197 197 213 213 215 210 202 192 187 186 177 176 164 114 152 154 172 178 183 183 182 185 188 190 192 192 193 194 192 148 110 132
282 287 289 280 280 280 283 286 291 290 292 291 283 274 281 284 306 319 311 308 308 308 307 304 302 301 301 304 302 297 293 288 287 277 262 256 255 244 234 239 222 230 227 227 229 218 218 218 220 221 206 171 197 197 202 197 211 223 222 214 194 187 182 179 167 163 165 168 171 178 183 187 188 188 186 182 170 185 192 187 166 128 119 132 126
285 282 294 297 291 288 286 286 288 289 294 295 291 286 279 292 304 311 310 311 311 309 303 298 292 293 296 297 297 295 294 293 287 280 265 256 248 242 235 235 226 226 225 225 226 222 222 219 220 219 211 192 185 198 202 202 194 201 214 226 199 193 188 176 162 163 165 169 173 175 180 187 189 186 173 150 140 160 156 122 84 101 105 119 137
278 282 288 286 282 282 285 289 287 287 295 293 287 286 288 296 303 307 313 313 305 298 296 293 289 291 289 289 288 288 289 286 284 280 271 259 245 234 235 231 226 221 222 226 221 221 221 216 218 214 201 177 188 202 203 197 202 196 198 204 192 182 183 170 162 162 163 159 160 168 175 178 170 161 130 86 79 76 100 115 104 95 109 114 161
288 288 285 276 283 284 283 285 284 287 292 290 286 287 288 296 301 307 311 306 298 295 291 286 285 287 283 278 273 273 276 282 281 278 267 259 256 244 235 240 232 225 220 222 219 225 223 218 213 206 185 190 200 209 210 197 197 197 195 194 182 180 175 168 165 157 148 149 150 156 151 149 144 139 134 139 144 130 97 120 115 107 114 152 144
283 289 283 282 278 278 283 283 283 288 291 288 289 288 288 293 302 300 299 290 289 290 288 284 283 281 280 284 284 275 273 271 273 273 276 272 251 242 240 236 246 226 229 230 226 228 222 208 213 213 193 196 203 210 197 196 199 200 203 201 190 179 173 161 165 162 153 155 165 159 159 161 161 159 161 163 165 160 151 128 138 157 148 156 174
293 295 290 285 284 282 281 280 281 289 287 288 288 289 290 296 297 290 289 284 280 281 280 279 283 280 282 285 283 283 278 273 271 271 271 273 279 259 246 247 245 241 230 233 234 236 232 215 205 213 207 214 216 199 196 199 198 201 202 204 191 183 170 165 166 158 156 160 162 165 167 167 169 168 170 169 163 163 157 136 157 156 152 177 178